Terminal Aerodrome Forecast
Issued by NWS Memphis, TN

Home | Current Version | Previous Version | Text Only | Print | Product List | Glossary On
Versions: 1 2 3 4 5 6 7 8 9 10 11 12 13 14 15 16 17 18 19 20 21 22 23 24 25 26 27 28 29 30
000
FTUS44 KMEG 051459 AAA
TAFMEM
TAF AMD
KMEM 051459Z 0515/0612 12004KT P6SM SKC
     FM051600 08005KT P6SM SCT045
     FM060000 15003KT P6SM SKC=

USA.gov is the U.S. government's official web portal to all federal, state and local government web resources and services.